Laredo, TX

3:29 PM CST on December 13, 2017 (GMT -0600)
Laredo International

Weather History for KLRD - September, 2012

Change the Weather History Date:

Friday, September 21, 2012

  Actual Average Record
Temperature  
Mean Temperature 82 °F 82 °F  
Max Temperature 95 °F 92 °F 110 °F (1926)
Min Temperature 68 °F 71 °F 57 °F (1983)
Degree Days  
Heating Degree Days 0 0  
Month to date heating degree days 0 0  
Since 1 July heating degree days 0 0  
Cooling Degree Days 17 17  
Month to date cooling degree days 428 402  
Year to date cooling degree days 4256 3645  
Growing Degree Days 32 (Base 50)    
Moisture  
Dew Point 54 °F    
Average Humidity 43    
Maximum Humidity 78    
Minimum Humidity 18    
Precipitation  
Precipitation 0.00 in 0.09 in 1.82 in (1995)
Month to date precipitation 0.29 2.15  
Year to date precipitation 6.19 15.14  
Sea Level Pressure  
Sea Level Pressure 29.96 in    
Wind  
Wind Speed 7 mph (ESE)    
Max Wind Speed 13 mph    
Max Gust Speed 16 mph    
Visibility 10 miles    
Events      
T = Trace of Precipitation, MM = Missing Value Source: NWS Daily Summary

Daily Weather History Graph

Daily Weather History Graph

Search for Another Location

Airport or City:

Trip Planner

Search our weather history database for the weather conditions in past years. The results will help you decide how hot, cold, wet, or windy it might be!

Date:

Astronomy

Sep. 21, 2012 Rise Set
Actual Time 7:26 AM CDT 7:34 PM CDT
Civil Twilight 7:02 AM CDT 7:58 PM CDT
Nautical Twilight 6:35 AM CDT 8:25 PM CDT
Astronomical Twilight 6:08 AM CDT 8:52 PM CDT
Moon 1:17 PM CDT (9/21) No Moon Set
Length of Visible Light 12h 55m
Length of Day
12h 08m
Waxing Crescent, 37% of the Moon is Illuminated
Sep 21
Waxing Crescent
Sep 22
First Quarter
Sep 29
Full
Oct 8
Last Quarter
Oct 15
New

Hourly Weather History & Observations

Time (CDT) Temp. Heat Index Dew Point Humidity Pressure Visibility Wind Dir Wind Speed Gust Speed Precip Events Conditions
12:56 AM 75.9 °F - 57.9 °F 54% 30.00 in 10.0 mi SE 8.1 mph - N/A   Clear
1:56 AM 73.9 °F - 59.9 °F 61% 30.00 in 10.0 mi South 10.4 mph - N/A   Clear
2:56 AM 72.9 °F - 59.9 °F 64% 30.00 in 10.0 mi South 8.1 mph - N/A   Clear
3:56 AM 72.9 °F - 59.9 °F 64% 29.99 in 10.0 mi SSE 9.2 mph - N/A   Clear
4:56 AM 72.0 °F - 61.0 °F 68% 29.98 in 10.0 mi SSE 6.9 mph - N/A   Clear
5:56 AM 70.9 °F - 61.9 °F 73% 29.98 in 10.0 mi SE 6.9 mph - N/A   Clear
6:56 AM 68.9 °F - 61.0 °F 76% 29.98 in 10.0 mi East 3.5 mph - N/A   Clear
7:56 AM 68.9 °F - 61.9 °F 78% 29.98 in 10.0 mi SE 5.8 mph - N/A   Clear
8:56 AM 72.9 °F - 61.9 °F 68% 29.99 in 10.0 mi SE 5.8 mph - N/A   Clear
9:56 AM 79.9 °F - 63.0 °F 56% 29.99 in 10.0 mi SSE 6.9 mph - N/A   Clear
10:56 AM 83.8 °F 83.8 °F 59.9 °F 44% 29.99 in 10.0 mi SE 3.5 mph - N/A   Clear
11:56 AM 88.0 °F - 52.0 °F 29% 29.99 in 10.0 mi ESE 5.8 mph - N/A   Clear
12:56 PM 91.9 °F - 48.9 °F 23% 29.97 in 10.0 mi Variable 5.8 mph - N/A   Clear
1:56 PM 91.9 °F - 46.9 °F 21% 29.94 in 10.0 mi Variable 5.8 mph - N/A   Clear
2:56 PM 93.9 °F - 45.9 °F 19% 29.91 in 10.0 mi ENE 9.2 mph - N/A   Clear
3:56 PM 93.9 °F - 43.9 °F 18% 29.88 in 10.0 mi Variable 4.6 mph - N/A   Clear
4:56 PM 95.0 °F - 45.9 °F 18% 29.87 in 10.0 mi East 10.4 mph - N/A   Clear
5:56 PM 93.9 °F - 45.9 °F 19% 29.87 in 10.0 mi NE 8.1 mph - N/A   Clear
6:56 PM 92.8 °F - 43.9 °F 18% 29.88 in 10.0 mi ESE 6.9 mph - N/A   Clear
7:56 PM 88.9 °F - 46.9 °F 23% 29.90 in 10.0 mi East 9.2 mph - N/A   Clear
8:56 PM 84.2 °F - 48.2 °F 29% 29.96 in 10.0 mi East 6.9 mph - N/A   Clear
9:56 PM 81.9 °F - 48.9 °F 32% 29.94 in 10.0 mi East 8.1 mph - N/A   Clear
10:56 PM 79.9 °F - 52.9 °F 39% 29.96 in 10.0 mi ESE 12.7 mph - N/A   Clear
11:56 PM 77.9 °F - 52.9 °F 42% 29.97 in 10.0 mi SE 9.2 mph - N/A   Clear